• In Hungary
  • List of Countries
  • For 7 days
  • Water Temperature
  • Satellite Maps
  • Weather Map
  • News
  • Weather Widgets
  • user-avatar
    Login

    Hourly Weather Harevka

    Today, 19 August, Sunday

    Time Temperature Precipitation Wind Pressure Humidity
    00:00 +13°C° 0 mm 3 mps 744 mmHg 71%
    01:00 +12°C° 0 mm 3 mps 744 mmHg 73%
    02:00 +12°C° 0 mm 3 mps 744 mmHg 76%
    03:00 +11°C° 0 mm 3 mps 744 mmHg 78%
    04:00 +11°C° 0 mm 3 mps 744 mmHg 78%
    05:00 +11°C° 0 mm 3 mps 744 mmHg 79%
    06:00 +11°C° 0 mm 3 mps 744 mmHg 79%
    07:00 +13°C° 0 mm 3 mps 745 mmHg 71%
    08:00 +15°C° 0 mm 4 mps 745 mmHg 63%
    09:00 +18°C° 0 mm 4 mps 745 mmHg 56%
    10:00 +19°C° 0 mm 4 mps 745 mmHg 51%
    11:00 +20°C° 0 mm 4 mps 745 mmHg 46%
    12:00 +21°C° 0 mm 4 mps 745 mmHg 42%
    13:00 +22°C° 0 mm 4 mps 744 mmHg 41%
    14:00 +22°C° 0 mm 4 mps 744 mmHg 40%
    15:00 +23°C° 0 mm 4 mps 744 mmHg 39%
    16:00 +22°C° 0 mm 3 mps 744 mmHg 43%
    17:00 +21°C° 0 mm 3 mps 744 mmHg 47%
    18:00 +21°C° 0 mm 2 mps 743 mmHg 51%
    19:00 +19°C° 0 mm 2 mps 744 mmHg 56%
    20:00 +17°C° 0 mm 2 mps 744 mmHg 60%
    21:00 +16°C° 0 mm 2 mps 744 mmHg 65%
    22:00 +15°C° 0 mm 1 mps 744 mmHg 68%
    23:00 +15°C° 0 mm 1 mps 744 mmHg 70%

    Tomorrow, 20 August, Monday

    Time Temperature Precipitation Wind Pressure Humidity
    00:00 +14°C° 0 mm 1 mps 744 mmHg 73%
    01:00 +14°C° 0 mm 1 mps 744 mmHg 74%
    02:00 +13°C° 0 mm 0 mps 744 mmHg 76%
    03:00 +12°C° 0 mm 0 mps 744 mmHg 77%
    04:00 +13°C° 0 mm 0 mps 744 mmHg 76%
    05:00 +14°C° 0 mm 1 mps 744 mmHg 76%
    06:00 +14°C° 0 mm 1 mps 744 mmHg 75%
    07:00 +16°C° 0 mm 1 mps 744 mmHg 68%
    08:00 +19°C° 0 mm 1 mps 744 mmHg 61%
    09:00 +21°C° 0 mm 1 mps 744 mmHg 55%
    10:00 +22°C° 0 mm 1 mps 744 mmHg 51%
    11:00 +23°C° 0 mm 1 mps 744 mmHg 47%
    12:00 +24°C° 0 mm 1 mps 744 mmHg 43%
    13:00 +25°C° 0 mm 1 mps 743 mmHg 42%
    14:00 +25°C° 0 mm 2 mps 743 mmHg 40%
    15:00 +26°C° 0 mm 2 mps 743 mmHg 39%
    16:00 +25°C° 0 mm 2 mps 742 mmHg 42%
    17:00 +25°C° 0 mm 1 mps 742 mmHg 44%
    18:00 +24°C° 0 mm 1 mps 742 mmHg 47%
    19:00 +23°C° 0 mm 1 mps 742 mmHg 50%
    20:00 +21°C° 0 mm 1 mps 742 mmHg 53%
    21:00 +20°C° 0 mm 1 mps 742 mmHg 56%
    22:00 +19°C° 0 mm 1 mps 742 mmHg 57%
    23:00 +19°C° 0 mm 1 mps 742 mmHg 58%

    Day after tomorrow, 21 August, Tuesday

    Time Temperature Precipitation Wind Pressure Humidity
    00:00 +18°C° 0 mm 1 mps 742 mmHg 60%
    01:00 +17°C° 0 mm 2 mps 742 mmHg 61%
    02:00 +16°C° 0 mm 2 mps 742 mmHg 61%
    03:00 +16°C° 0 mm 2 mps 742 mmHg 62%
    04:00 +16°C° 0 mm 2 mps 742 mmHg 63%
    05:00 +16°C° 0 mm 2 mps 742 mmHg 63%
    06:00 +16°C° 0 mm 2 mps 742 mmHg 64%
    07:00 +18°C° 0 mm 2 mps 742 mmHg 57%
    08:00 +21°C° 0 mm 3 mps 742 mmHg 51%
    09:00 +24°C° 0 mm 3 mps 742 mmHg 45%
    10:00 +25°C° 0 mm 3 mps 742 mmHg 42%
    11:00 +26°C° 0 mm 4 mps 741 mmHg 39%
    12:00 +27°C° 0 mm 4 mps 741 mmHg 36%
    13:00 +28°C° 0 mm 4 mps 741 mmHg 35%
    14:00 +28°C° 0 mm 4 mps 740 mmHg 34%
    15:00 +28°C° 0 mm 4 mps 740 mmHg 34%
    16:00 +27°C° 0 mm 4 mps 739 mmHg 37%
    17:00 +26°C° 0 mm 3 mps 739 mmHg 41%
    18:00 +26°C° 0 mm 3 mps 739 mmHg 44%
    19:00 +24°C° 0 mm 3 mps 739 mmHg 46%
    20:00 +22°C° 0 mm 3 mps 739 mmHg 47%
    21:00 +20°C° 0 mm 3 mps 738 mmHg 49%
    22:00 +20°C° 0 mm 3 mps 738 mmHg 49%
    23:00 +19°C° 0 mm 3 mps 738 mmHg 48%

    22 August, Wednesday

    Time Temperature Precipitation Wind Pressure Humidity
    00:00 +19°C° 0 mm 3 mps 738 mmHg 48%
    01:00 +18°C° 0 mm 3 mps 737 mmHg 47%
    02:00 +18°C° 0 mm 3 mps 737 mmHg 47%
    03:00 +18°C° 0 mm 4 mps 737 mmHg 46%
    04:00 +18°C° 0 mm 4 mps 737 mmHg 46%
    05:00 +18°C° 0 mm 4 mps 736 mmHg 47%
    06:00 +18°C° 0 mm 4 mps 736 mmHg 47%
    07:00 +18°C° 0.2 mm 4 mps 736 mmHg 50%
    08:00 +19°C° 0.2 mm 4 mps 737 mmHg 54%
    09:00 +20°C° 0.2 mm 4 mps 737 mmHg 57%
    10:00 +19°C° 0.5 mm 4 mps 737 mmHg 62%
    11:00 +19°C° 0.5 mm 4 mps 737 mmHg 67%
    12:00 +19°C° 0.5 mm 3 mps 737 mmHg 73%
    13:00 +20°C° 0 mm 4 mps 737 mmHg 64%
    14:00 +21°C° 0 mm 4 mps 737 mmHg 55%
    15:00 +23°C° 0 mm 5 mps 738 mmHg 47%
    16:00 +22°C° 0 mm 5 mps 738 mmHg 48%
    17:00 +21°C° 0 mm 5 mps 738 mmHg 50%
    18:00 +20°C° 0 mm 5 mps 738 mmHg 52%
    19:00 +19°C° 0 mm 4 mps 739 mmHg 55%
    20:00 +17°C° 0 mm 4 mps 740 mmHg 59%
    21:00 +15°C° 0 mm 4 mps 740 mmHg 62%
    22:00 +14°C° 0 mm 4 mps 740 mmHg 65%
    23:00 +13°C° 0 mm 4 mps 741 mmHg 68%

    23 August, Thursday

    Time Temperature Precipitation Wind Pressure Humidity
    00:00 +12°C° 0 mm 3 mps 741 mmHg 71%
    01:00 +12°C° 0 mm 3 mps 741 mmHg 74%
    02:00 +11°C° 0 mm 3 mps 742 mmHg 78%
    03:00 +11°C° 0 mm 3 mps 742 mmHg 81%
    04:00 +11°C° 0 mm 3 mps 742 mmHg 81%
    05:00 +10°C° 0 mm 3 mps 743 mmHg 81%
    06:00 +10°C° 0 mm 3 mps 743 mmHg 81%
    07:00 +12°C° 0 mm 3 mps 743 mmHg 73%
    08:00 +14°C° 0 mm 4 mps 744 mmHg 66%
    09:00 +17°C° 0 mm 4 mps 744 mmHg 58%
    10:00 +18°C° 0 mm 4 mps 744 mmHg 53%
    11:00 +19°C° 0 mm 4 mps 744 mmHg 49%
    12:00 +20°C° 0 mm 4 mps 744 mmHg 44%
    13:00 +20°C° 0 mm 4 mps 744 mmHg 43%
    14:00 +21°C° 0 mm 4 mps 744 mmHg 42%
    15:00 +21°C° 0 mm 4 mps 744 mmHg 42%
    16:00 +20°C° 0 mm 4 mps 744 mmHg 45%
    17:00 +19°C° 0 mm 4 mps 744 mmHg 48%
    18:00 +19°C° 0 mm 3 mps 744 mmHg 51%
    19:00 +17°C° 0 mm 3 mps 744 mmHg 55%
    20:00 +16°C° 0 mm 2 mps 745 mmHg 59%
    21:00 +14°C° 0 mm 2 mps 745 mmHg 62%
    22:00 +13°C° 0 mm 2 mps 745 mmHg 64%
    23:00 +13°C° 0 mm 1 mps 745 mmHg 65%

    24 August, Friday

    Time Temperature Precipitation Wind Pressure Humidity
    00:00 +13°C° 0 mm 1 mps 745 mmHg 67%
    01:00 +12°C° 0 mm 1 mps 745 mmHg 67%
    02:00 +12°C° 0 mm 1 mps 745 mmHg 68%
    03:00 +12°C° 0 mm 1 mps 746 mmHg 69%
    04:00 +12°C° 0 mm 1 mps 746 mmHg 69%
    05:00 +12°C° 0 mm 1 mps 746 mmHg 69%
    06:00 +12°C° 0 mm 1 mps 746 mmHg 69%
    07:00 +14°C° 0 mm 1 mps 746 mmHg 62%
    08:00 +16°C° 0 mm 1 mps 746 mmHg 55%
    09:00 +19°C° 0 mm 1 mps 746 mmHg 48%
    10:00 +21°C° 0 mm 1 mps 746 mmHg 45%
    11:00 +22°C° 0 mm 1 mps 746 mmHg 41%
    12:00 +23°C° 0 mm 1 mps 746 mmHg 37%
    13:00 +24°C° 0 mm 1 mps 746 mmHg 36%
    14:00 +24°C° 0 mm 1 mps 746 mmHg 35%
    15:00 +24°C° 0 mm 1 mps 745 mmHg 34%
    16:00 +24°C° 0 mm 1 mps 745 mmHg 38%
    17:00 +23°C° 0 mm 1 mps 745 mmHg 41%
    18:00 +23°C° 0 mm 1 mps 745 mmHg 44%
    19:00 +21°C° 0 mm 1 mps 745 mmHg 47%
    20:00 +19°C° 0 mm 1 mps 745 mmHg 50%
    21:00 +18°C° 0 mm 1 mps 745 mmHg 52%
    22:00 +16°C° 0 mm 1 mps 745 mmHg 54%
    23:00 +15°C° 0 mm 0 mps 745 mmHg 55%
    Show more